User: anonymous   Login
Location: Belfast
(54.5830°N, 5.9330°W)
Time: 20:50:42
(UTC+01:00)
Language:

Coronas F rocket - Orbit

View from above orbital plane
View from above orbital plane
View from above satellite
View from above satellite

Ground track
Ground track

The orbit data is extracted from the following two-line orbital elements,

1 26874U 01032B   16242.52579029  .00026368  00000-0  11521-3 0  9995
2 26874  82.4585 201.3323 0002852 278.8888  81.2059 15.84524655847246
Epoch (UTC): 29 August 2016 12:37:08
Eccentricity: 0.0002852
inclination: 82.4585°
perigee height: 316 km
apogee height: 319 km
right ascension of ascending node: 201.3323°
argument of perigee: 278.8888°
revolutions per day: 15.84524655
mean anomaly at epoch: 81.2059°
orbit number at epoch: 84724

The dashed part of the orbit path shows where the satellite is in the earth's shadow,  

DLR